C/2010 J1 ( Boattini )

Japanese version
Home page
Updated on October 3, 2010

---------------------------------------------------------------------

* Profile

Discovery Date May 6, 2010
Magnitude 15.8 mag
Discoverer A. Boattini (Catalina Sky Survey)

* Pictures

* Orbital Elements

Epoch 2010 Feb. 13.0 TT = JDT 2455240.5
T 2010 Feb. 4.81810 TT                                  MPC
q   1.6956406            (2000.0)            P               Q
z  +0.0272064      Peri.  333.10727     +0.07170146     -0.72053364
 +/-0.0000046      Node   254.81327     -0.73714381     -0.50410086
e   0.9538676      Incl.  134.38458     -0.67192105     +0.47614450

* Finding Charts

* Magnitudes Graph

        m1 = 9.5 + 5 log d + 20.0 log r

---------------------------------------------------------------------

The orbital elements are published on M.P.E.C. 2010-N56.
The charts are made with StellaNavigator Ver.8 (AstroArts).
The magnitudes graphs are made with Comet for Windows.

---------------------------------------------------------------------

Copyright(C) Seiichi Yoshida (comet@aerith.net). All rights reserved.